Погода в Андоне

Южная Корея     36°33′49″N   128°43′05″E
темп.,
°C
ветер,
м/с
пор.,
м/с
влажн.,
%
обл.,
%
осадки,
мм/ч
давл.,
гПа
погр.,
м
17 мая, пн
пн1700:00+14в1398100 2.0 1003210
03:00+13св1298100 3.2 1003172
06:00+13в1298100 1.9 1005176
09:00+13всв1397100 3.2 1006211
12:00+14в1295100 0.8 1007220
15:00+13в1297100 6.6 1008192
18:00+13всв1298100 4.9 1008145
21:00+13в1197100 4.9 101138
18 мая, вт
вт1800:00+13всв1197100 0.1 101226
03:00+13ююз1196100 0.1 101124
06:00+13всв1197100 0.0 101233
09:00+15юз019197 0.0 1013352
12:00+19з227399 0.1 1011880
15:00+23зсз335478 0.2 10101637
18:00+20з2371100 0.1 1010312
21:00+15ю1188100 0.1 101111
19 мая, ср
ср1900:00+14юз1193100 0.0 101211
03:00+13юз0096100 0.0 101211
06:00+13зюз009684 0.0 101411
09:00+19з1261100 0.0 1014521
12:00+25зсз2236100 0.0 1012933
15:00+27з113485 0.0 10111238
18:00+24сз1153100 0.0 101111
21:00+18вюв1160100 0.0 101311
20 мая, чт
чт2000:00+17зюз0064100 0.0 101311
03:00+16в1169100 0.0 101111
06:00+16вюв1176100 0.0 101112
09:00+19всв0164100 0.0 1010276
12:00+16всв2587100 0.7 1009279
15:00+16всв3997100 4.6 1006575
18:00+15всв3997100 3.9 1004544
21:00+15всв2697100 9.1 1004368
21 мая, пт
пт2100:00+15зсз0098100 2.4 100334
03:00+15з1299100 3.3 100283
06:00+15юз1199100 0.4 100241
09:00+16юз2596100 0.4 1003410
12:00+18з467894 0.1 1003768
15:00+20з476589 0.2 10021456
18:00+20з57639 0.0 10031098
21:00+14юз27910 0.1 1006185